Location: Horse Creek
(39.8908°N, 99.6943°W)
Time: 07:09:28
(UTC+00:00)

Daily predictions for brighter satellites

Satellite Brightness Start Highest point End
(mag) Time Altitude Azimuth Time Altitude Azimuth Time Altitude Azimuth
Cosmos 841 Rocket 3.9 12:02:24 10° S 12:07:27 63° ESE 12:12:32 10° NNE
Cosmos 1898 Rocket 3.4 12:04:49 20° NNW 12:08:33 87° ENE 12:13:42 10° SSE
FALCON 9 R/B 3.5 12:08:10 17° SW 12:09:18 18° SSW 12:11:54 10° SSE
Cosmos 2237 Rocket 2.5 12:05:40 10° SSW 12:11:16 70° ESE 12:16:56 10° NNE
deb Chang Zheng 4 3.4 12:08:50 10° N 12:13:03 61° WNW 12:17:12 10° SSW
Cosmos 2333 Rocket 2.8 12:13:27 33° NW 12:13:27 33° NW 12:18:23 10° N
GPS 2-04 Rocket1 3.9 12:13:17 28° SW 12:14:01 30° SSW 12:17:40 10° SE
ATLAS CENTAUR R/B 4.2 12:12:27 10° SSE 12:14:54 17° ESE 12:17:20 10° ENE
CZ-2C R/B 4.4 12:11:30 10° SE 12:15:57 30° ENE 12:20:30 10° N
Cosmos 1570 Rocket 4.4 12:11:46 10° S 12:16:54 63° ESE 12:22:05 10° NNE
SL-8 R/B 4.3 12:14:57 30° NW 12:16:57 48° NNE 12:21:37 10° E
Cosmos 2219 Rocket 2.7 12:17:16 33° WNW 12:17:42 33° WNW 12:22:44 10° N
Cosmos 2034 Rocket 4.0 12:12:24 10° S 12:18:47 87° E 12:25:11 10° N
YAOGAN 6 3.0 12:19:19 10° NNE 12:23:00 67° ESE 12:26:40 10° S
Cosmos 1953 2.1 12:20:15 10° S 12:24:14 80° W 12:28:13 10° N
FALCON 9 DEB 2.9 12:25:36 42° WSW 12:26:37 75° NW 12:30:01 10° NE
Nadezhda 4 Rocket 3.9 12:25:06 10° N 12:31:15 88° W 12:37:21 10° S
PSLV R/B 3.8 12:28:31 10° S 12:32:34 68° WSW 12:36:42 10° NNW
Cosmos 1892 Rocket 4.1 12:31:19 25° NW 12:32:59 35° W 12:36:57 10° SSW
COSMOS 2428 3.4 12:30:54 24° W 12:33:07 31° WNW 12:38:09 10° N
Cosmos 1461 3.5 12:30:57 23° WSW 12:33:28 42° NW 12:38:01 10° NNE
Cosmos 2208 Rocket 4.3 12:30:22 10° SSW 12:35:48 77° ESE 12:41:15 10° NNE
GEOS 3 Rocket 3.7 12:30:38 10° SSE 12:35:54 63° WSW 12:40:17 16° NW
ERS-2 2.6 12:32:42 10° S 12:36:07 38° W 12:37:40 25° NW
Cosmos 1908 3.1 12:32:41 10° S 12:36:29 88° W 12:40:19 10° N
Meteor PRIRODA 4.2 12:34:50 10° N 12:38:09 34° WNW 12:41:27 10° SW
Cosmos 1814 Rocket 3.9 12:38:10 10° SSW 12:43:19 83° WNW 12:48:29 10° NNE
Cosmos 1980 3.7 12:38:22 10° SW 12:43:57 60° WNW 12:49:34 10° NNE
Cosmos 1937 Rocket 3.5 12:39:08 10° NNW 12:44:20 61° WSW 12:49:29 10° S
COSMO-SKYMED 1 3.5 12:41:33 10° SSW 12:45:12 26° W 12:47:20 18° NW
Cosmos 921 Rocket 4.0 12:43:59 21° W 12:45:19 24° WNW 12:48:47 10° N
Cosmos 372 Rocket 4.2 12:43:26 10° NNW 12:48:42 74° ENE 12:53:55 10° SSE
Envisat 2.9 12:43:53 10° N 12:48:56 66° WNW 12:53:56 10° SSW
NOAA 6 4.0 12:45:38 10° NNE 12:50:51 88° WNW 12:56:03 10° SSW
SJ 16-02 3.3 12:52:18 12° WSW 12:52:18 12° WSW 12:53:05 10° WSW
Meteor 2-13 Rocket 4.5 12:45:14 10° NNW 12:51:17 60° W 12:57:18 10° S
USA 306 4.3 12:48:31 10° SSW 12:52:29 40° SE 12:56:28 10° ENE
CZ-4B DEB 4.2 12:54:44 10° N 13:00:19 75° WNW 13:05:50 10° SSW
CZ-4B R/B 4.1 12:59:54 10° NNW 13:02:16 17° WNW 13:04:39 10° WSW
CZ-2C R/B 2.6 13:00:21 10° SW 13:04:01 32° S 13:07:29 10° ESE
Cosmos 1544 Rocket 4.5 13:01:01 10° SW 13:04:39 26° WNW 13:08:17 10° NNW
USA 276 4.5 13:05:34 10° WSW 13:06:25 11° SW 13:07:17 10° SSW
Cosmos 2026 Rocket 4.2 13:02:08 10° N 13:08:30 85° E 13:14:53 10° S
Cosmos 1703 3.6 13:07:31 10° NNW 13:11:15 44° W 13:14:57 10° SSW
Lacrosse 4 Rocket 1.4 13:07:28 10° SSW 13:11:39 85° WNW 13:15:59 10° NNE
Cosmos 1340 3.0 13:11:03 10° NNW 13:14:38 44° W 13:18:13 10° SSW
Cosmos 1346 Rocket 3.2 13:12:03 10° N 13:16:01 65° E 13:19:57 10° SSE
Cosmos 1606 Rocket 3.9 13:13:31 10° S 13:17:47 69° E 13:22:05 10° NNE
Cosmos 540 Rocket 4.3 13:14:33 10° WSW 13:18:51 27° WNW 13:23:11 10° N
Cosmos 1689 Rocket 4.0 13:18:05 10° WSW 13:19:27 13° W 13:20:49 10° WNW
Lacrosse 5 rocket 1.5 13:16:14 10° NW 13:20:03 61° NE 13:23:41 10° SE
Cosmos 1939 Rocket 3.4 13:18:01 10° NNE 13:21:55 62° E 13:25:45 10° S
BREEZE-M DEB (TANK) 4.2 13:21:26 10° NNW 13:22:33 12° N 13:23:53 10° NE
BREEZE M DEB (TANK) 1.8 13:21:10 10° WSW 13:23:19 56° NNW 13:27:28 10° NE
H-2A R/B 4.5 13:23:57 10° NW 13:25:35 13° WNW 13:27:14 10° W
Cosmos 44 Rocket 4.0 13:20:45 10° NW 13:25:37 40° WSW 13:30:26 10° S
Cosmos 1626 Rocket 4.5 13:22:09 10° NNW 13:25:59 28° W 13:29:47 10° SSW
Cosmos 2228 2.9 13:26:11 10° SSW 13:30:26 74° W 13:34:41 10° N
Meteor 1-11 4.2 13:27:25 10° NNW 13:32:57 66° W 13:38:28 10° S
